Terminal Aerodrome Forecast
Issued by NWS Charleston, WV

Current Version | Previous Version | Graphics & Text | Print | Product List | Glossary On
Versions: 1 2 3 4 5 6 7 8 9 10 11 12 13 14 15 16 17 18 19 20 21 22 23
000
FTUS41 KRLX 292100 AAA
TAFEKN
TAF AMD
KEKN 292100Z 2921/3018 VRB05KT P6SM FEW045
     FM300300 00000KT 6SM BR SCT250
     FM300500 00000KT 3SM BR BKN250
     FM300700 00000KT 1/4SM FG OVC001
     FM301200 00000KT 1SM BR BKN001
     FM301400 00000KT 6SM BR SCT005 BKN012
     FM301500 00000KT P6SM SCT020=

USA.gov is the U.S. government's official web portal to all federal, state and local government web resources and services.